User: anonymous   Login
Location: Three Oaks Observatory
(31.1535°N, 83.5955°W)
Time: 13:07:06
(UTC-04:00)
Language:

nSIGHT-1 - Orbit

View from above orbital plane
View from above orbital plane
View from above satellite
View from above satellite

Ground track
Ground track

The orbit data is extracted from the following two-line orbital elements,

1 42726U 98067MF  19083.06182287  .00016612  00000-0  15261-3 0  9990
2 42726  51.6389  30.7145 0004507 185.9250 174.1694 15.67844664104212
Epoch (UTC): 24 March 2019 01:29:01
Eccentricity: 0.0004507
inclination: 51.6389°
perigee height: 362 km
apogee height: 368 km
right ascension of ascending node: 30.7145°
argument of perigee: 185.9250°
revolutions per day: 15.67844664
mean anomaly at epoch: 174.1694°
orbit number at epoch: 10421

The dashed part of the orbit path shows where the satellite is in the earth's shadow,  

DLR